TimeEDT,TemperatureF,Dew PointF,Humidity,Sea Level PressureIn,VisibilityMPH,Wind Direction,Wind SpeedMPH,Gust SpeedMPH,PrecipitationIn,Events,Conditions,WindDirDegrees,DateUTC
12:53 AM,37.9,17.1,43,29.81,10.0,NW,16.1,25.3,N/A,,Clear,310,2013-04-02 04:53:00
1:53 AM,37.0,16.0,42,29.83,10.0,NW,18.4,23.0,N/A,,Clear,320,2013-04-02 05:53:00
2:53 AM,36.0,14.0,41,29.83,10.0,NW,18.4,26.5,N/A,,Clear,310,2013-04-02 06:53:00
3:53 AM,35.1,14.0,42,29.86,10.0,NW,15.0,27.6,N/A,,Clear,310,2013-04-02 07:53:00
4:53 AM,34.0,12.9,42,29.87,10.0,WNW,13.8,23.0,N/A,,Clear,300,2013-04-02 08:53:00
5:53 AM,34.0,12.9,42,29.88,10.0,NW,15.0,24.2,N/A,,Clear,310,2013-04-02 09:53:00
6:53 AM,33.1,15.1,48,29.91,10.0,West,11.5,-,N/A,,Clear,270,2013-04-02 10:53:00
7:53 AM,35.1,15.1,44,29.93,10.0,West,17.3,-,N/A,,Clear,270,2013-04-02 11:53:00
8:53 AM,37.4,17.1,44,29.93,10.0,West,16.1,20.7,N/A,,Clear,260,2013-04-02 12:53:00
9:53 AM,48.9,17.1,28,29.92,10.0,West,18.4,27.6,N/A,,Scattered Clouds,270,2013-04-02 13:53:00
10:53 AM,39.2,15.1,37,29.92,10.0,West,23.0,28.8,N/A,,Mostly Cloudy,260,2013-04-02 14:53:00
11:53 AM,41.0,18.0,40,29.91,10.0,West,25.3,32.2,N/A,,Mostly Cloudy,260,2013-04-02 15:53:00
12:53 PM,50.0,18.0,28,29.90,10.0,WSW,23.0,35.7,N/A,,Partly Cloudy,250,2013-04-02 16:53:00
1:53 PM,41.0,19.0,41,29.89,10.0,West,26.5,33.4,N/A,,Clear,260,2013-04-02 17:53:00
2:53 PM,41.0,18.0,40,29.88,10.0,West,25.3,34.5,N/A,,Partly Cloudy,260,2013-04-02 18:53:00
3:53 PM,41.0,16.0,36,29.87,10.0,West,25.3,38.0,N/A,,Clear,260,2013-04-02 19:53:00
4:53 PM,41.0,17.1,38,29.87,10.0,WSW,25.3,36.8,N/A,,Clear,250,2013-04-02 20:53:00
5:53 PM,39.2,19.0,44,29.89,10.0,WSW,23.0,35.7,N/A,,Clear,250,2013-04-02 21:53:00
6:53 PM,48.0,18.0,30,29.91,10.0,West,24.2,32.2,N/A,,Clear,260,2013-04-02 22:53:00
7:53 PM,37.4,18.0,45,29.93,10.0,WNW,17.3,24.2,N/A,,Scattered Clouds,290,2013-04-02 23:53:00
8:53 PM,51.1,10.9,20,29.96,10.0,WNW,12.7,-,N/A,,Clear,290,2013-04-03 00:53:00
9:53 PM,51.1,12.0,21,29.98,10.0,WNW,13.8,19.6,N/A,,Clear,290,2013-04-03 01:53:00
10:53 PM,50.0,12.0,22,29.99,10.0,WNW,11.5,-,N/A,,Clear,290,2013-04-03 02:53:00
11:53 PM,50.0,12.9,23,29.99,10.0,WNW,10.4,-,N/A,,Clear,290,2013-04-03 03:53:00